GW1218 Weather Reports


time (UTC)temp
F
wind
direction
speed
knots
gust
knots
rain 1hr
in
rain 24hr
in
rain mn
in
humidity
%
barometer
mb
20260507140518 72 62 5.2 7.8 0.00 0.00 0.00 18 1016.1
20260507135518 71 67 4.3 7.8 0.00 0.00 0.00 19 1016.1
20260507134519 70 86 4.3 7.8 0.00 0.00 0.00 20 1016.0
20260507133519 70 101 4.3 8.7 0.00 0.00 0.00 21 1015.9
20260507132519 69 82 3.5 7.0 0.00 0.00 0.00 22 1015.9
20260507131519 69 91 3.5 6.1 0.00 0.00 0.00 24 1015.9
20260507130519 68 89 3.5 7.8 0.00 0.00 0.00 25 1015.9
20260507125519 68 67 3.5 6.1 0.00 0.00 0.00 26 1015.9
20260507124516 69 66 5.2 7.8 0.00 0.00 0.00 25 1015.8
20260507123517 68 59 5.2 12.2 0.00 0.00 0.00 26 1015.6
20260507122520 65 61 4.3 7.0 0.00 0.00 0.00 28 1015.7
20260507121520 61 16 0.9 3.5 0.00 0.00 0.00 38 1015.6
20260507120517 61 19 0.9 1.7 0.00 0.00 0.00 38 1015.7
20260507115538 61 334 0.9 5.2 0.00 0.00 0.00 38 1015.7
20260507114518 60 346 0.9 2.6 0.00 0.00 0.00 38 1015.8
20260507113518 59 42 0.9 1.7 0.00 0.00 0.00 41 1015.9
20260507112538 61 40 0.9 1.7 0.00 0.00 0.00 38 1016.0
20260507111538 62 72 1.7 1.7 0.00 0.00 0.00 37 1016.1
20260507110518 63 67 1.7 2.6 0.00 0.00 0.00 36 1016.1
20260507105519 64 52 2.6 4.3 0.00 0.00 0.00 35 1016.2
20260507104519 64 55 2.6 5.2 0.00 0.00 0.00 35 1016.2
20260507103518 64 53 2.6 5.2 0.00 0.00 0.00 34 1016.2
20260507102519 64 59 2.6 6.1 0.00 0.00 0.00 34 1016.4
20260507101517 64 50 3.5 6.1 0.00 0.00 0.00 34 1016.4
20260507100519 64 62 2.6 4.3 0.00 0.00 0.00 34 1016.5
20260507095519 64 64 3.5 6.1 0.00 0.00 0.00 34 1016.5
20260507094539 63 59 1.7 3.5 0.00 0.00 0.00 35 1016.5
20260507093517 63 62 2.6 4.3 0.00 0.00 0.00 35 1016.6
20260507092517 64 68 2.6 4.3 0.00 0.00 0.00 34 1016.7
20260507091517 63 52 1.7 3.5 0.00 0.00 0.00 35 1016.7
20260507090520 63 68 1.7 3.5 0.00 0.00 0.00 36 1016.7
20260507085518 61 63 2.6 5.2 0.00 0.00 0.00 37 1016.8
20260507084538 61 55 1.7 2.6 0.00 0.00 0.00 38 1016.8
20260507083518 61 62 1.7 3.5 0.00 0.00 0.00 38 1016.8
20260507082518 61 66 2.6 3.5 0.00 0.00 0.00 38 1016.9
20260507081518 61 59 1.7 2.6 0.00 0.00 0.00 38 1016.8
20260507080519 62 66 1.7 3.5 0.00 0.00 0.00 38 1016.8
20260507075519 63 58 1.7 2.6 0.00 0.00 0.00 36 1016.9
20260507074519 63 52 1.7 2.6 0.00 0.00 0.00 36 1017.0
20260507073539 63 40 1.7 3.5 0.00 0.00 0.00 36 1017.1
20260507072519 63 45 1.7 3.5 0.00 0.00 0.00 36 1017.1
20260507071519 62 36 2.6 4.3 0.00 0.00 0.00 37 1017.1
20260507070517 62 45 1.7 3.5 0.00 0.00 0.00 39 1017.1
20260507065557 62 57 0.9 1.7 0.00 0.00 0.00 39 1017.2
20260507064600 62 56 0.9 1.7 0.00 0.00 0.00 39 1017.1
20260507063517 62 43 0.9 1.7 0.00 0.00 0.00 38 1017.1
20260507062518 62 54 0.9 1.7 0.00 0.00 0.00 39 1017.1
20260507061518 62 57 0.9 1.7 0.00 0.00 0.00 38 1017.0
20260507060538 62 53 0.9 2.6 0.00 0.00 0.00 38 1017.0
20260507055518 62 52 0.9 1.7 0.00 0.00 0.00 38 1017.0
20260507054518 63 53 0.9 1.7 0.00 0.00 0.00 39 1016.9
20260507053519 63 52 0.9 1.7 0.00 0.00 0.00 38 1017.0
20260507052519 63 53 0.9 1.7 0.00 0.00 0.00 39 1017.0
20260507051559 64 59 0.0 1.7 0.00 0.00 0.00 37 1016.9
20260507050519 64 50 0.0 1.7 0.00 0.00 0.00 37 1016.9
20260507045519 65 38 0.9 1.7 0.00 0.00 0.00 36 1016.9
20260507044516 65 22 0.9 2.6 0.00 0.00 0.00 35 1016.9
20260507043517 65 35 0.9 2.6 0.00 0.00 0.00 35 1016.8
20260507042520 66 20 0.9 1.7 0.00 0.00 0.00 35 1016.7
20260507041520 66 27 0.9 1.7 0.00 0.00 0.00 34 1016.6
20260507040520 67 9 0.9 1.7 0.00 0.00 0.00 34 1016.4
20260507035517 67 354 1.7 2.6 0.00 0.00 0.00 34 1016.3
20260507034517 67 323 0.0 0.9 0.00 0.00 0.00 34 1016.2
20260507033537 67 60 0.0 0.9 0.00 0.00 0.00 34 1016.1
20260507032517 68 320 0.0 0.9 0.00 0.00 0.00 33 1015.9
20260507031518 68 303 0.9 1.7 0.00 0.00 0.00 33 1015.8
20260507030521 69 287 0.0 0.9 0.00 0.00 0.00 32 1015.6
20260507025518 70 282 0.9 2.6 0.00 0.00 0.00 31 1015.4
20260507024519 70 250 1.7 2.6 0.00 0.00 0.00 30 1015.4
20260507023518 71 258 1.7 3.5 0.00 0.00 0.00 29 1015.3
20260507022519 71 247 2.6 5.2 0.00 0.00 0.00 29 1015.2
20260507021519 72 245 2.6 6.1 0.00 0.00 0.00 28 1015.1
20260507020539 73 233 4.3 8.7 0.00 0.00 0.00 28 1015.0
20260507015516 73 240 4.3 7.0 0.00 0.00 0.00 28 1015.0
20260507014516 74 251 2.6 5.2 0.00 0.00 0.00 27 1014.9
20260507013520 74 249 4.3 8.7 0.00 0.00 0.00 27 1014.9
20260507012520 75 247 4.3 8.7 0.00 0.00 0.00 27 1014.8
20260507011517 75 232 4.3 9.6 0.00 0.00 0.00 26 1014.8
20260507010517 75 243 4.3 7.8 0.00 0.00 0.00 26 1014.8
20260507005537 75 238 4.3 7.0 0.00 0.00 0.00 26 1014.7
20260507004517 75 243 4.3 8.7 0.00 0.00 0.00 26 1014.7
20260507003518 76 237 5.2 10.4 0.00 0.00 0.00 26 1014.7
20260507002518 76 243 3.5 7.0 0.00 0.00 0.00 27 1014.7
20260507001558 76 250 3.5 7.8 0.00 0.00 0.00 26 1014.7
20260507000518 76 238 2.6 7.8 0.00 0.00 0.00 26 1014.7
20260506235518 76 240 3.5 6.1 0.00 0.00 0.00 27 1014.6
20260506234542 76 246 5.2 8.7 0.00 0.00 0.00 27 1014.7
20260506233519 75 234 4.3 7.0 0.00 0.00 0.00 27 1014.8
20260506232519 75 230 3.5 8.7 0.00 0.00 0.00 27 1014.8
20260506231538 75 252 3.5 7.0 0.00 0.00 0.00 27 1014.8
20260506230519 76 236 5.2 9.6 0.00 0.00 0.00 26 1014.9
20260506225519 75 233 4.3 9.6 0.00 0.00 0.00 27 1015.0
20260506224519 75 224 4.3 8.7 0.00 0.00 0.00 27 1015.1
20260506223540 75 252 6.1 11.3 0.00 0.00 0.00 27 1015.1
20260506222520 75 237 4.3 9.6 0.00 0.00 0.00 27 1015.2
20260506221520 75 271 3.5 7.8 0.00 0.00 0.00 27 1015.4
20260506220520 74 224 6.1 12.2 0.00 0.00 0.00 27 1015.4
20260506215520 75 248 6.1 11.3 0.00 0.00 0.00 27 1015.6
20260506214540 74 249 4.3 12.2 0.00 0.00 0.00 28 1015.7
20260506213517 74 236 4.3 7.8 0.00 0.00 0.00 28 1015.8
20260506212518 74 243 5.2 9.6 0.00 0.00 0.00 28 1015.9
20260506211521 73 246 4.3 9.6 0.00 0.00 0.00 29 1016.1
20260506210521 73 251 6.1 11.3 0.00 0.00 0.00 29 1016.2
20260506205518 73 255 4.3 9.6 0.00 0.00 0.00 29 1016.3
20260506204518 73 227 3.5 7.8 0.00 0.00 0.00 29 1016.5
20260506203518 73 294 2.6 7.0 0.00 0.00 0.00 29 1016.6
20260506202519 73 230 4.3 8.7 0.00 0.00 0.00 29 1016.7
20260506201519 72 235 4.3 10.4 0.00 0.00 0.00 30 1016.7
20260506200519 72 248 3.5 7.8 0.00 0.00 0.00 30 1016.8
20260506195519 72 250 6.1 10.4 0.00 0.00 0.00 31 1016.9
20260506194520 72 233 4.3 10.4 0.00 0.00 0.00 31 1017.0
20260506193520 72 250 4.3 9.6 0.00 0.00 0.00 31 1017.0
20260506192520 71 247 3.5 7.0 0.00 0.00 0.00 32 1017.1
20260506191540 70 254 4.3 10.4 0.00 0.00 0.00 32 1017.1
20260506190517 70 291 2.6 6.1 0.00 0.00 0.00 32 1017.2
20260506185517 70 240 4.3 7.8 0.00 0.00 0.00 32 1017.3
20260506184518 69 250 4.3 9.6 0.00 0.00 0.00 33 1017.4
20260506183517 69 232 2.6 7.0 0.00 0.00 0.00 33 1017.5
20260506182518 69 215 1.7 7.0 0.00 0.00 0.00 33 1017.6
20260506181541 69 274 1.7 6.1 0.00 0.00 0.00 33 1017.7
20260506180518 68 258 1.7 7.0 0.00 0.00 0.00 34 1017.7
20260506175518 68 198 2.6 7.0 0.00 0.00 0.00 34 1017.8
20260506174538 67 257 3.5 7.8 0.00 0.00 0.00 35 1017.8
20260506173519 67 233 5.2 9.6 0.00 0.00 0.00 34 1017.8
20260506172519 67 230 2.6 7.0 0.00 0.00 0.00 35 1017.8
20260506171519 66 241 3.5 10.4 0.00 0.00 0.00 36 1017.8
20260506170519 66 213 2.6 7.0 0.00 0.00 0.00 37 1017.8
20260506165519 65 199 2.6 7.0 0.00 0.00 0.00 37 1017.7
20260506164519 65 204 2.6 7.0 0.00 0.00 0.00 38 1017.6
20260506163520 65 248 3.5 7.8 0.00 0.00 0.00 38 1017.6
20260506162540 65 256 4.3 7.8 0.00 0.00 0.00 39 1017.5
20260506161517 64 253 3.5 7.8 0.00 0.00 0.00 40 1017.5
20260506160520 64 123 1.7 3.5 0.00 0.00 0.00 39 1017.5
20260506155520 64 245 3.5 6.1 0.00 0.00 0.00 40 1017.5
20260506154521 64 250 2.6 7.0 0.00 0.00 0.00 40 1017.4
20260506153520 63 179 0.9 3.5 0.00 0.00 0.00 41 1017.5
20260506152518 64 246 1.7 3.5 0.00 0.00 0.00 41 1017.5
20260506151518 63 160 0.9 3.5 0.00 0.00 0.00 41 1017.5
20260506150518 63 168 1.7 5.2 0.00 0.00 0.00 41 1017.5
20260506145521 63 100 0.9 2.6 0.00 0.00 0.00 42 1017.5
20260506144521 62 111 0.9 3.5 0.00 0.00 0.00 42 1017.4
20260506143518 62 97 1.7 5.2 0.00 0.00 0.00 42 1017.5
20260506142519 61 85 0.9 3.5 0.00 0.00 0.00 43 1017.4
20260506141519 60 87 1.7 4.3 0.00 0.00 0.00 44 1017.3